Terminal Aerodrome Forecast
Issued by NWS

Home | Current Version | Previous Version | Text Only | Print | Product List | Glossary On
Versions: 1 2 3 4 5 6 7 8 9 10 11 12 13 14 15 16 17 18 19 20 21 22 23 24 25 26 27 28 29 30 31 32 33 34 35 36 37 38 39 40 41 42 43 44 45 46 47 48 49 50
000
FTUS41 KCTP 302101 AAB
TAFUNV
TAF AMD
KUNV 302101Z 3021/3118 19005KT P6SM BKN025 OVC060
     FM302200 19005KT P6SM SCT025 BKN060
     FM310300 20003KT P6SM BKN025
     FM311300 23006KT P6SM VCSH OVC035=

USA.gov is the U.S. government's official web portal to all federal, state and local government web resources and services.